星链-30277 (STARLINK-30277 )

导读 | 星芒AI

STARLINK-30277 是 SpaceX Starlink 卫星互联网项目中的第 30277 颗卫星。该卫星属于星链计划的低轨卫星群,旨在为全球用户提供高速互联网服务。它运行在近地轨道,具备先进的通信技术,支持宽带数据传输。作为星链计划的一部分,该卫星有助于扩大网络覆盖范围,特别是在偏远和网络基础设施薄弱的地区。其发射和运行体现了 SpaceX 在构建全球卫星互联网系统方面的持续进展。

基本信息
目录编号:
57645
目录名称:
STARLINK-30277
国际标识:
2023-122P
轨道中心:
EARTH
卫星名称:
星链-30277
卫星全名:
星链-30277 (STARLINK-30277 )
卫星状态:
在轨 (已飞行855 天)
发射日期:
2023-08-17 UTC
国别 :
美国 (US)
星等 :
--
轨道信息
数据来源 国际轨道数据
星历时间: 2025-12-18T18:58:05+0800
15小时前
查看轨道信息
半长轴: 6861.205km
偏心率: 0.0001456
轨道倾角: 43.001°
近地点辐角 268.987°
升交点赤经 49.161°
平近点角 91.082°
近地点: 482.071km
远地点: 484.069km
周期: 94.267分钟
每日圈数: 15.275737
详细信息
固有亮度:
5
最大亮度:
0.3
卫星平台:
Starlink v2.0 mini
覆盖范围:
全球
运营商:
太空探索技术公司
运营商所在国:
美国
制造商(研发单位):
太空探索技术公司
制造商所在国:
美国
使用方式:
暂无
卫星简介
星链(Starlink)计划是由太空探索技术公司(SpaceX)提出的一个巨型低轨卫星互联网星座项目,计划在2019年至2024年间在太空搭建由约1.2万颗卫星组成的“星链”网络,其中1584颗将部署在地球上空550千米处的近地轨道,并从2020年开始工作。该卫星仍在工作。
2D轨道图
3D轨道图
轨道高度分析图
轨道倾角分析图
轨道综合分析图
查看轨道综合分析图